Powrót do katalogu

STARLINK-32075

AktywnyŁącznośćVLEO
NORAD 60345·PAYLOAD·🇺🇸 United States

Wystrzelony Aug 2, 2024 z Cape Canaveral Space Force Station

Loading…

Następne Przeloty (najbliższe 24 godziny)

TLE

ŚwieżeSource: CelesTrak SupGP

Epoka: Sep 14, 2026, 14:06 UTC

1 60345C 24136S   26257.58798611  .00018209  00000+0  53809-3 0  2575
2 60345  53.1584 277.6144 0001305  77.8302 320.1422 15.34375135    15

Śledź STARLINK-32075 w czasie rzeczywistym z AllMySat

Download on the App Store